Location: Pallagorio
(39.3000°N, 16.9000°E)
Time: 00:59:32
(UTC+00:00)

COSMO-SKYMED 1 - Pass Details

Date: 24 January 2021
Orbit: 621 x 623 km, 97.9° (Epoch: 08 March)

Event Time Altitude Azimuth Distance (km) Brightness Sun altitude
Rises 17:33:23 0° 3° (N) 2,912 5.9 -17.3°
Reaches altitude 10° 17:35:43 10° 354° (N) 2,000 5.1 -17.8°
Maximum altitude 17:39:40 35° 289° (WNW) 1,006 4.1 -18.5°
Drops below altitude 10° 17:43:36 10° 223° (SW) 1,986 5.9 -19.3°
Sets 17:45:55 0° 215° (SW) 2,887 6.7 -19.7°
